CZ-6A DEB

Satellite information

Favourite Embed

Satellite Type and Status

DEBRISIN ORBIT

Key statistics

Satellite CZ-6A DEB at a glance.

Uptime

397

Days in orbit

Revolutions

≈ 14.2

Per day

Orbit

LEO

Low Earth Orbit

Inclination

89.0

Latest

Satellite identification and parameters

Extended collection of information and parameters for CZ-6A DEB.

Object identification

Identified? True

Debris? True

Object name: CZ-6A DEB

International designator: 2024-140LX

Object number (NORAD): 60972

Object ID (CCSDS): 60972

Country: PEOPLES REPUBLIC OF CHINA (PRC)

Current information (Y/N): Y

RCS size: SMALL

Orbital parameters

Period: 101.084 minutes

Inclination: 89.0037 deg

SMA: 7188.105 km

Apoapsis: 835.036 km

Periapsis: 784.905 km

RAAN: 306.4333 deg

Eccentricy: 0.00348709

Argument of periapsis: 49.7235 deg

Mean anomaly: 310.6997 deg

Mean motion: 14.24561197 rev/day

Mean motion (dot): 0.00002494 rev/day2

B* drag term: 0.0010624418 1/REarth

Two-line elements (TLE)

Creation date: Sept. 7, 2025, 3:09 a.m.

Reference frame: TEME

Reference center: EARTH

Epoch: Sept. 6, 2025, 9:32 p.m. UTC

TLE line 0: 0 CZ-6A DEB

TLE line 1: 1 60972U 24140LX 25249.89785896 .00002494 00000-0 10624-2 0 9991

TLE line 2: 2 60972 89.0037 306.4333 0034871 49.7235 310.6997 14.24561197 54282

Live tracking on map

Real-time ground track for satellite CZ-6A DEB.

In-orbit conjunctions

A list of the most updated potential collisions computed for object CZ-6A DEB.

Target Orbit TCA Probability of collision Miss distance Type
FENGYUN 1C DEB SSO 2025-08-04 10:06:21 0.0001205362 304.0 (m) DEBRIS
SL-16 DEB LEO 2025-04-07 17:43:16 0.0001239829 414.0 (m) DEBRIS
COSMOS 1275 DEB LEO 2025-01-30 17:18:30 0.0002097219 360.0 (m) DEBRIS
SL-16 R/B LEO 2025-01-25 22:32:20 0.0003123711 976.0 (m) ROCKET BODY
FENGYUN 1C DEB SSO 2024-09-18 01:37:22 0.0002064164 127.0 (m) DEBRIS

Associated space launch

18 Low Earth Orbit communication satellites with Ku, Q and V band payloads for the G60 constellation operated by Shanghai Spacecom Satellite Technology (SSST) with funding backed by the Shanghai local government. Initial constellation will consist of 1296 satellites by 2027 with long term plans to expand it to 12000 satellites.

CZ-6A DEB was lifted into orbit during the mission ‘Long March 6A | G60 Polar Group 01’, on board a Long March 6A space rocket.

The launch took place on Aug. 6, 2024, 6:42 a.m. from Launch Complex 9A.

For more information about the launch, click the button.

Launch to space Long March 6A | G60 Polar Group 01
Long March 6A | G60 Polar Group 01

Agency: N/A

Status: Launch Successful

Launch date: Aug. 6, 2024, 6:42 a.m. UTC

Rocket: Long March 6A

Launch pad: Launch Complex 9A

Location: Taiyuan Satellite Launch Center, People's Republic of China

...

Latest news about this satellite

News about space launch
Brightness of first Chinese broadband constellation satellites alarms astronomers

The first satellites of a Chinese broadband constellation are significantly brighter than those of Western systems, posing a new challenge for astronomers.

News about space launch
Chinese rocket stage breaks up into cloud of more than 700 pieces of space debris

HELSINKI — A Chinese Long March 6A rocket’s upper stage has fragmented into a cloud of over 700 pieces of space debris, adding to concerns about long-term orbital safety. China […]

News about space launch
China's Thousand Sails Megaconstellation Kicks Off with Dangerous Debris Field

China's Thousand Sails Megaconstellation Kicks Off with Dangerous Debris Field


Newsletter sign-up

Weekly statistics, charts and insights to help you stay on top of the space industry.